{"data":{"norad_id":63916,"intl_designator":"2025-095AC","name":"STARLINK-33910","alt_names":[],"object_type":"PAYLOAD","status":"ACTIVE","operator":null,"country":"US","launch_date":"2025-05-10","launch_site_code":"AFETR","launch_vehicle":null,"mission":null,"orbit_class":"UNKNOWN","rcs_meters":null,"size_class":null,"mass_kg":null,"dimensions":null,"purposes":["comms"],"wikipedia_slug":null,"has_3d_model":false,"image_url":null,"decayed_at":null,"tle_current":{"epoch":"2026-09-19T10:34:13.417248Z","epoch_age_seconds":238674,"freshness":"STALE","line1":"1 63916U 25095AC  26262.44043307  .00011232  00000+0  41712-3 0  9995","line2":"2 63916  43.0024 161.6521 0000961 282.7691  77.3053 15.27576126 77419","mean_motion":15.27576126,"eccentricity":9.61e-5,"inclination_deg":43.0024,"raan_deg":161.6521,"arg_perigee_deg":282.7691,"mean_anomaly_deg":77.3053,"bstar":0.00041712,"rev_number":7741,"period_min":94.266987778258,"perigee_km":482.40133511523,"apogee_km":483.72005731244,"semimajor_km":6861.1976962138,"source":"CELESTRAK","updated_at":"2026-09-21T09:00:35.148344Z"}}}